Location: Ellingshausen
(50.5460°N, 10.4723°E)
Time: 18:03:37
(UTC+00:00)

Cosmos 1500 Rocket - Visible Passes

Search period start: 11 April 2026 00:00
Search period end: 21 April 2026 00:00
Orbit: 596 x 624 km, 82.5° (Epoch: 11 April)

Date Brightness Start Highest point End Pass type
(mag) Time Alt. Az. Time Alt. Az. Time Alt. Az.
11 Apr 5.3 18:35:57 10° SW 18:39:57 38° WNW 18:43:58 10° N visible
12 Apr 7.2 03:02:01 10° NE 03:03:45 12° ENE 03:05:30 10° E visible
12 Apr 6.3 18:50:57 10° WSW 18:54:28 24° WNW 18:58:01 10° NNW visible
13 Apr 6.8 03:15:22 10° NNE 03:18:25 18° ENE 03:21:29 10° ESE visible
13 Apr 6.9 19:06:22 10° WSW 19:09:05 16° WNW 19:11:49 10° NNW visible
14 Apr 6.0 03:29:14 10° N 03:33:01 27° ENE 03:36:47 10° SE visible
14 Apr 7.5 19:22:49 10° WNW 19:23:46 11° WNW 19:24:43 10° NW visible
15 Apr 5.1 03:43:20 10° N 03:47:31 43° ENE 03:51:43 10° SSE visible
16 Apr 7.4 02:23:12 10° NE 02:23:24 10° ENE 02:23:36 10° ENE visible
17 Apr 6.8 02:35:28 10° NNE 02:38:06 15° ENE 02:40:44 10° E visible
18 Apr 6.2 02:49:12 10° NNE 02:52:44 23° ENE 02:56:16 10° ESE visible
19 Apr 5.4 03:03:12 10° N 03:07:16 35° ENE 03:11:20 10° SE visible
20 Apr 4.4 03:17:23 10° N 03:21:44 56° ENE 03:26:05 10° SSE visible
